Weather reports worldwide

Advertisment
South Newington, United Kingdom (99166): temperature & dewpoint: 21.04.2017 04:00:00 - 27.04.2017 04:00:00 (BST)South Newington, United Kingdom (99166): temperature -20cm & temperature -100cm: 21.04.2017 04:00:00 - 27.04.2017 04:00:00 (BST)South Newington, United Kingdom (99166): precipitation: 21.04.2017 04:00:00 - 27.04.2017 04:00:00 (BST)
Date & Time tt [°C] td [°C] tt -20cm [°C] tt -100cm [°C] rr [mm]
27.04.2017 04:00:00 - - - - -
27.04.2017 03:00:00 -1,4 -1,7 - - 0,0
27.04.2017 02:00:00 -0,9 -1,3 - - 0,0
27.04.2017 01:00:00 -0,6 -1,3 - - 0,0
27.04.2017 00:00:00 1,3 0,3 - - 0,2
26.04.2017 23:00:00 3,8 1,7 - - 0,2
26.04.2017 22:00:00 2,3 0,8 - - 0,0
26.04.2017 21:00:00 3,6 1,2 - - 0,0
26.04.2017 20:00:00 4,9 1,4 - - 0,0
26.04.2017 19:00:00 5,0 1,2 - - 0,0
26.04.2017 18:00:00 5,6 1,1 - - 0,0
26.04.2017 17:00:00 8,2 0,2 - - 0,0
26.04.2017 16:00:00 8,4 -0,5 - - 0,2
26.04.2017 15:00:00 9,5 2,5 - - 0,0
26.04.2017 14:00:00 8,3 0,9 - - 0,0
26.04.2017 13:00:00 7,8 0,4 - - 0,0
26.04.2017 12:00:00 7,4 1,3 - - 0,0
26.04.2017 11:00:00 6,1 0,9 - - 0,0
26.04.2017 10:00:00 5,7 1,1 11,0 10,2 0,0
26.04.2017 09:00:00 5,3 1,3 - - 0,0
26.04.2017 08:00:00 3,9 1,0 - - 0,0
26.04.2017 07:00:00 3,8 1,2 - - 0,0
26.04.2017 06:00:00 3,0 1,0 - - 0,0
26.04.2017 05:00:00 2,3 1,0 - - 0,2
26.04.2017 04:00:00 1,8 0,8 - - 0,0
26.04.2017 03:00:00 1,2 0,8 - - 0,0
26.04.2017 02:00:00 0,0 -0,4 - - 0,0
26.04.2017 01:00:00 0,3 -0,2 - - 0,0
26.04.2017 00:00:00 0,3 -0,4 - - 0,0
25.04.2017 23:00:00 1,9 1,2 - - 0,0
25.04.2017 22:00:00 1,2 0,3 - - 0,0
25.04.2017 21:00:00 1,0 -1,0 - - 0,0
25.04.2017 20:00:00 3,6 0,6 - - 0,0
25.04.2017 19:00:00 5,1 1,7 - - 0,0
25.04.2017 18:00:00 4,4 1,1 - - 0,2
25.04.2017 17:00:00 9,5 -0,5 - - 0,0
25.04.2017 16:00:00 6,5 -1,0 - - 0,0
25.04.2017 15:00:00 6,6 -0,5 - - 0,0
25.04.2017 14:00:00 8,0 -2,5 - - 0,0
25.04.2017 13:00:00 9,3 -2,1 - - 0,0
25.04.2017 12:00:00 7,9 -2,6 - - 0,0
25.04.2017 11:00:00 7,1 -1,9 - - 0,0
25.04.2017 10:00:00 6,1 -1,4 11,2 10,2 0,0
25.04.2017 09:00:00 5,4 0,2 - - 0,0
25.04.2017 08:00:00 3,9 0,5 - - 0,0
25.04.2017 07:00:00 1,8 -1,2 - - 0,0
25.04.2017 06:00:00 1,0 -2,1 - - 0,0
25.04.2017 05:00:00 0,0 -2,6 - - 0,0
25.04.2017 04:00:00 -1,7 -3,7 - - 0,0
25.04.2017 03:00:00 -1,0 -3,8 - - 0,0
25.04.2017 02:00:00 0,2 -3,8 - - 0,0
25.04.2017 01:00:00 1,8 -2,9 - - 0,0
25.04.2017 00:00:00 1,8 -3,9 - - 0,0
24.04.2017 23:00:00 3,1 -4,9 - - 0,0
24.04.2017 22:00:00 3,8 -4,6 - - 0,0
24.04.2017 21:00:00 4,7 -1,6 - - 0,0
24.04.2017 20:00:00 7,3 -0,3 - - 0,0
24.04.2017 19:00:00 8,5 2,7 - - 0,0
24.04.2017 18:00:00 9,2 6,4 - - 0,0
24.04.2017 17:00:00 8,8 5,9 - - 0,0
24.04.2017 16:00:00 11,2 7,5 - - 0,2
24.04.2017 15:00:00 10,8 7,0 - - 0,0
24.04.2017 14:00:00 12,8 6,8 - - 0,0
24.04.2017 13:00:00 12,3 6,5 - - 0,0
24.04.2017 12:00:00 12,8 8,1 - - 0,0
24.04.2017 11:00:00 11,5 7,4 - - 0,0
24.04.2017 10:00:00 10,7 6,8 11,7 10,2 0,0
24.04.2017 09:00:00 10,1 7,0 - - 0,0
24.04.2017 08:00:00 7,5 7,5 - - 0,0
24.04.2017 07:00:00 3,3 3,2 - - 0,0
24.04.2017 06:00:00 1,8 1,6 - - 0,0
24.04.2017 05:00:00 1,2 0,9 - - 0,0
24.04.2017 04:00:00 0,3 0,0 - - 0,0
24.04.2017 03:00:00 0,5 0,1 - - 0,0
24.04.2017 02:00:00 1,1 0,7 - - 0,0
24.04.2017 01:00:00 1,5 0,9 - - 0,0
24.04.2017 00:00:00 2,3 1,5 - - 0,0
23.04.2017 23:00:00 3,0 1,9 - - 0,0
23.04.2017 22:00:00 4,1 2,6 - - 0,0
23.04.2017 21:00:00 6,6 4,2 - - 0,0
23.04.2017 20:00:00 10,8 5,0 - - 0,0
23.04.2017 19:00:00 13,2 4,0 - - 0,0
23.04.2017 18:00:00 14,3 3,7 - - 0,0
23.04.2017 17:00:00 14,2 3,3 - - 0,0
23.04.2017 16:00:00 13,6 4,1 - - 0,0
23.04.2017 15:00:00 13,6 3,7 - - 0,0
23.04.2017 14:00:00 13,7 3,8 - - 0,0
23.04.2017 13:00:00 12,1 3,4 - - 0,0
23.04.2017 12:00:00 11,5 2,7 - - 0,0
23.04.2017 11:00:00 11,1 3,3 - - 0,0
23.04.2017 10:00:00 10,5 4,1 11,7 10,0 0,0
23.04.2017 09:00:00 6,9 6,4 - - 0,0
23.04.2017 08:00:00 4,0 3,9 - - 0,0
23.04.2017 07:00:00 0,2 0,0 - - 0,0
23.04.2017 06:00:00 -1,6 -2,0 - - 0,0
23.04.2017 05:00:00 -1,7 -2,3 - - 0,0
23.04.2017 04:00:00 -0,5 -1,1 - - 0,0
23.04.2017 03:00:00 0,2 -0,6 - - 0,0
23.04.2017 02:00:00 1,1 0,0 - - 0,0
23.04.2017 01:00:00 3,4 1,6 - - 0,0
23.04.2017 00:00:00 6,4 4,4 - - 0,0
22.04.2017 23:00:00 3,6 1,4 - - 0,0
22.04.2017 22:00:00 4,4 0,7 - - 0,0
22.04.2017 21:00:00 6,6 2,6 - - 0,0
22.04.2017 20:00:00 9,6 1,5 - - 0,0
22.04.2017 19:00:00 12,7 1,8 - - 0,0
22.04.2017 18:00:00 14,0 1,5 - - 0,0
22.04.2017 17:00:00 13,6 1,0 - - 0,0
22.04.2017 16:00:00 15,1 2,3 - - 0,0
22.04.2017 15:00:00 14,4 2,8 - - 0,0
22.04.2017 14:00:00 13,9 3,5 - - 0,0
22.04.2017 13:00:00 13,1 5,2 - - 0,0
22.04.2017 12:00:00 11,2 3,2 - - 0,0
22.04.2017 11:00:00 11,1 4,1 - - 0,0
22.04.2017 10:00:00 9,5 4,2 11,5 10,0 0,0
22.04.2017 09:00:00 9,5 4,9 - - 0,0
22.04.2017 08:00:00 8,8 4,3 - - 0,0
22.04.2017 07:00:00 7,8 3,8 - - 0,0
22.04.2017 06:00:00 7,3 4,0 - - 0,0
22.04.2017 05:00:00 8,0 4,7 - - 0,0
22.04.2017 04:00:00 9,1 6,4 - - 0,0
22.04.2017 03:00:00 8,7 6,1 - - 0,0
22.04.2017 02:00:00 9,4 6,8 - - 0,0
22.04.2017 01:00:00 9,9 6,6 - - 0,0
22.04.2017 00:00:00 10,2 6,4 - - 0,0
21.04.2017 23:00:00 10,3 6,5 - - 0,0
21.04.2017 22:00:00 10,1 6,4 - - 0,0
21.04.2017 21:00:00 10,6 6,4 - - 0,0
21.04.2017 20:00:00 11,3 6,5 - - 0,0
21.04.2017 19:00:00 11,9 6,4 - - 0,0
21.04.2017 18:00:00 12,5 6,0 - - 0,0
21.04.2017 17:00:00 13,2 6,7 - - 0,0
21.04.2017 16:00:00 12,6 5,9 - - 0,0
21.04.2017 15:00:00 13,8 6,7 - - 0,0
21.04.2017 14:00:00 13,4 6,2 - - 0,0
21.04.2017 13:00:00 13,3 7,1 - - 0,0
21.04.2017 12:00:00 12,3 7,5 - - 0,0
21.04.2017 11:00:00 11,7 7,6 - - 0,0
21.04.2017 10:00:00 11,1 7,6 11,5 10,0 0,0
21.04.2017 09:00:00 10,3 8,3 - - 0,0
21.04.2017 08:00:00 8,4 8,2 - - 0,0
21.04.2017 07:00:00 6,9 6,8 - - 0,0
21.04.2017 06:00:00 5,8 5,6 - - 0,0
21.04.2017 05:00:00 4,1 3,9 - - 0,0
21.04.2017 04:00:00 2,3 2,0 - - 0,0

tt = temperature
td = dewpoint
tt -20cm = temperature -20cm
tt -100cm = temperature -100cm
rr = precipitation

Next stations